Location: Vienna
(38.9012°N, 77.2653°W)
Time: 05:28:17
(UTC-04:00)

Hubble Space Telescope - Visible Passes

Search period start: 23 April 2018 00:00
Search period end: 03 May 2018 00:00
Orbit: 537 x 541 km, 28.5° (Epoch: 22 April)

Date Brightness Start Highest point End Pass type
(mag) Time Alt. Az. Time Alt. Az. Time Alt. Az.
25 Apr 3.2 21:29:45 10° SSW 21:29:52 10° S 21:29:52 10° S visible
26 Apr 2.8 21:18:53 10° SSW 21:20:37 14° S 21:20:37 14° S visible
27 Apr 2.5 21:08:10 10° SSW 21:10:44 16° S 21:11:13 16° SSE visible
28 Apr 2.5 20:57:33 10° SW 21:00:18 17° S 21:01:43 15° SSE visible
29 Apr 2.5 20:47:01 10° SW 20:49:53 18° S 20:52:07 13° SE visible
30 Apr 2.5 20:36:31 10° SW 20:39:28 19° S 20:42:24 10° SE visible
30 Apr 3.3 22:17:28 10° SW 22:17:47 11° SW 22:17:47 11° SW visible
01 May 3.2 22:07:19 10° SW 22:08:03 12° SW 22:08:03 12° SW visible
02 May 3.1 21:57:19 10° SW 21:58:17 12° SSW 21:58:17 12° SSW visible
